When you browse on this site, cookies collect data to enhance your experience and personalize the content and advertising you see.
Visit our Privacy Policy to learn more. By continuing to use the site, you agree to this use of cookies and data.
  • In Österreich
  • Länderverzeichnis
  • Für 7 Tage
  • Wassertemperatur
  • Satellitenkarten
  • Wetterkarte
  • News
  • Widgets
  • user-avatar
    Anmelden

    Stündliche Wetter Ozerany

    Heute, 23 Juli, Dienstag

    Zeit Temperatur Niederschläge Wind Luftdruck Luftfeuchtigkeit
    00:00 +15°C° 0 mm 2 m/S 747 mmHg 97%
    01:00 +15°C° 0 mm 2 m/S 747 mmHg 97%
    02:00 +14°C° 0 mm 3 m/S 747 mmHg 98%
    03:00 +14°C° 0 mm 3 m/S 746 mmHg 97%
    04:00 +14°C° 0 mm 4 m/S 746 mmHg 97%
    05:00 +14°C° 0 mm 4 m/S 746 mmHg 97%
    06:00 +15°C° 0 mm 4 m/S 746 mmHg 95%
    07:00 +15°C° 0 mm 4 m/S 746 mmHg 92%
    08:00 +17°C° 0 mm 4 m/S 746 mmHg 90%
    09:00 +17°C° 0.1 mm 4 m/S 746 mmHg 88%
    10:00 +18°C° 0.1 mm 4 m/S 746 mmHg 87%
    11:00 +18°C° 0.1 mm 4 m/S 746 mmHg 85%
    12:00 +18°C° 0.3 mm 4 m/S 746 mmHg 86%
    13:00 +18°C° 0.3 mm 4 m/S 746 mmHg 88%
    14:00 +18°C° 0.3 mm 4 m/S 746 mmHg 89%
    15:00 +17°C° 0.2 mm 4 m/S 746 mmHg 90%
    16:00 +17°C° 0.2 mm 4 m/S 746 mmHg 91%
    17:00 +17°C° 0.2 mm 4 m/S 746 mmHg 92%
    18:00 +17°C° 0.3 mm 4 m/S 746 mmHg 92%
    19:00 +17°C° 0.3 mm 4 m/S 745 mmHg 93%
    20:00 +17°C° 0.3 mm 3 m/S 745 mmHg 93%
    21:00 +15°C° 0 mm 4 m/S 745 mmHg 93%
    22:00 +15°C° 0 mm 4 m/S 745 mmHg 93%
    23:00 +15°C° 0 mm 4 m/S 745 mmHg 93%

    Morgen, 24 Juli, Mittwoch

    Zeit Temperatur Niederschläge Wind Luftdruck Luftfeuchtigkeit
    00:00 +15°C° 0 mm 4 m/S 745 mmHg 94%
    01:00 +15°C° 0 mm 4 m/S 745 mmHg 95%
    02:00 +14°C° 0 mm 4 m/S 745 mmHg 96%
    03:00 +14°C° 0 mm 4 m/S 745 mmHg 96%
    04:00 +14°C° 0 mm 3 m/S 745 mmHg 96%
    05:00 +14°C° 0 mm 3 m/S 746 mmHg 96%
    06:00 +15°C° 0 mm 4 m/S 746 mmHg 92%
    07:00 +17°C° 0 mm 4 m/S 746 mmHg 88%
    08:00 +19°C° 0 mm 4 m/S 746 mmHg 84%
    09:00 +20°C° 0.3 mm 5 m/S 746 mmHg 81%
    10:00 +20°C° 0.3 mm 5 m/S 747 mmHg 78%
    11:00 +21°C° 0.3 mm 5 m/S 747 mmHg 75%
    12:00 +22°C° 0.3 mm 5 m/S 747 mmHg 70%
    13:00 +23°C° 0.3 mm 6 m/S 747 mmHg 66%
    14:00 +24°C° 0.3 mm 6 m/S 747 mmHg 61%
    15:00 +23°C° 0.1 mm 5 m/S 747 mmHg 61%
    16:00 +23°C° 0.1 mm 5 m/S 747 mmHg 62%
    17:00 +23°C° 0.1 mm 5 m/S 747 mmHg 62%
    18:00 +21°C° 0 mm 4 m/S 747 mmHg 67%
    19:00 +19°C° 0 mm 4 m/S 747 mmHg 72%
    20:00 +18°C° 0 mm 3 m/S 747 mmHg 77%
    21:00 +17°C° 0 mm 3 m/S 747 mmHg 78%
    22:00 +17°C° 0 mm 4 m/S 747 mmHg 80%
    23:00 +15°C° 0 mm 4 m/S 747 mmHg 81%

    übermorgen, 25 Juli, Donnerstag

    Zeit Temperatur Niederschläge Wind Luftdruck Luftfeuchtigkeit
    00:00 +15°C° 0 mm 4 m/S 747 mmHg 82%
    01:00 +14°C° 0 mm 3 m/S 747 mmHg 82%
    02:00 +13°C° 0 mm 3 m/S 747 mmHg 83%
    03:00 +13°C° 0 mm 3 m/S 748 mmHg 85%
    04:00 +13°C° 0 mm 3 m/S 748 mmHg 86%
    05:00 +13°C° 0 mm 3 m/S 748 mmHg 87%
    06:00 +14°C° 0 mm 3 m/S 748 mmHg 84%
    07:00 +16°C° 0 mm 3 m/S 747 mmHg 81%
    08:00 +18°C° 0 mm 3 m/S 747 mmHg 77%
    09:00 +19°C° 0 mm 3 m/S 747 mmHg 73%
    10:00 +20°C° 0 mm 3 m/S 747 mmHg 68%
    11:00 +22°C° 0 mm 3 m/S 747 mmHg 63%
    12:00 +22°C° 1.1 mm 3 m/S 747 mmHg 68%
    13:00 +21°C° 1.1 mm 3 m/S 747 mmHg 72%
    14:00 +21°C° 1.1 mm 3 m/S 746 mmHg 76%
    15:00 +21°C° 1.7 mm 3 m/S 746 mmHg 78%
    16:00 +21°C° 1.7 mm 3 m/S 746 mmHg 80%
    17:00 +20°C° 1.7 mm 3 m/S 746 mmHg 82%
    18:00 +19°C° 0.6 mm 2 m/S 746 mmHg 85%
    19:00 +18°C° 0.6 mm 2 m/S 746 mmHg 89%
    20:00 +17°C° 0.6 mm 2 m/S 746 mmHg 92%
    21:00 +16°C° 0 mm 2 m/S 746 mmHg 94%
    22:00 +16°C° 0 mm 2 m/S 746 mmHg 95%
    23:00 +15°C° 0 mm 2 m/S 746 mmHg 97%

    26 Juli, Freitag

    Zeit Temperatur Niederschläge Wind Luftdruck Luftfeuchtigkeit
    00:00 +15°C° 0 mm 2 m/S 746 mmHg 97%
    01:00 +14°C° 0 mm 2 m/S 746 mmHg 98%
    02:00 +14°C° 0 mm 2 m/S 746 mmHg 98%
    03:00 +14°C° 0 mm 2 m/S 746 mmHg 98%
    04:00 +14°C° 0 mm 2 m/S 746 mmHg 98%
    05:00 +14°C° 0 mm 2 m/S 746 mmHg 98%
    06:00 +14°C° 0 mm 3 m/S 746 mmHg 96%
    07:00 +16°C° 0 mm 3 m/S 746 mmHg 94%
    08:00 +17°C° 0 mm 3 m/S 746 mmHg 93%
    09:00 +18°C° 0.1 mm 3 m/S 746 mmHg 89%
    10:00 +19°C° 0.1 mm 4 m/S 746 mmHg 85%
    11:00 +20°C° 0.1 mm 4 m/S 747 mmHg 81%
    12:00 +21°C° 0.3 mm 4 m/S 747 mmHg 80%
    13:00 +21°C° 0.3 mm 4 m/S 746 mmHg 78%
    14:00 +22°C° 0.3 mm 4 m/S 746 mmHg 77%
    15:00 +22°C° 0.4 mm 4 m/S 746 mmHg 79%
    16:00 +22°C° 0.4 mm 4 m/S 746 mmHg 81%
    17:00 +22°C° 0.4 mm 4 m/S 746 mmHg 82%
    18:00 +21°C° 0.1 mm 4 m/S 746 mmHg 86%
    19:00 +20°C° 0.1 mm 3 m/S 747 mmHg 90%
    20:00 +19°C° 0.1 mm 3 m/S 747 mmHg 94%
    21:00 +18°C° 0.4 mm 3 m/S 747 mmHg 94%
    22:00 +18°C° 0.4 mm 4 m/S 747 mmHg 94%
    23:00 +18°C° 0.4 mm 4 m/S 748 mmHg 95%

    27 Juli, Samstag

    Zeit Temperatur Niederschläge Wind Luftdruck Luftfeuchtigkeit
    00:00 +17°C° 0 mm 3 m/S 748 mmHg 95%
    01:00 +17°C° 0 mm 3 m/S 747 mmHg 95%
    02:00 +16°C° 0 mm 3 m/S 747 mmHg 95%
    03:00 +16°C° 0 mm 3 m/S 748 mmHg 96%
    04:00 +16°C° 0 mm 3 m/S 748 mmHg 96%
    05:00 +16°C° 0 mm 3 m/S 748 mmHg 97%
    06:00 +17°C° 0 mm 3 m/S 748 mmHg 93%
    07:00 +19°C° 0 mm 3 m/S 748 mmHg 89%
    08:00 +20°C° 0 mm 3 m/S 748 mmHg 86%
    09:00 +22°C° 0.4 mm 3 m/S 748 mmHg 79%
    10:00 +25°C° 0.4 mm 4 m/S 748 mmHg 73%
    11:00 +26°C° 0.4 mm 4 m/S 748 mmHg 67%
    12:00 +27°C° 0.2 mm 4 m/S 748 mmHg 65%
    13:00 +27°C° 0.2 mm 4 m/S 748 mmHg 63%
    14:00 +28°C° 0.2 mm 4 m/S 747 mmHg 61%
    15:00 +27°C° 0.2 mm 4 m/S 747 mmHg 65%
    16:00 +27°C° 0.2 mm 4 m/S 747 mmHg 69%
    17:00 +26°C° 0.2 mm 4 m/S 747 mmHg 72%
    18:00 +25°C° 0.1 mm 4 m/S 747 mmHg 78%
    19:00 +22°C° 0.1 mm 3 m/S 747 mmHg 84%
    20:00 +21°C° 0.1 mm 3 m/S 747 mmHg 89%
    21:00 +20°C° 0 mm 3 m/S 747 mmHg 91%
    22:00 +20°C° 0 mm 3 m/S 747 mmHg 92%
    23:00 +19°C° 0 mm 3 m/S 747 mmHg 94%

    28 Juli, Sonntag

    Zeit Temperatur Niederschläge Wind Luftdruck Luftfeuchtigkeit
    00:00 +18°C° 0 mm 2 m/S 747 mmHg 94%
    01:00 +18°C° 0 mm 2 m/S 747 mmHg 94%
    02:00 +18°C° 0 mm 2 m/S 747 mmHg 94%
    03:00 +17°C° 0 mm 2 m/S 747 mmHg 94%
    04:00 +17°C° 0 mm 2 m/S 747 mmHg 94%
    05:00 +17°C° 0 mm 2 m/S 747 mmHg 94%
    06:00 +19°C° 0 mm 2 m/S 747 mmHg 88%
    07:00 +21°C° 0 mm 2 m/S 747 mmHg 83%
    08:00 +24°C° 0 mm 2 m/S 747 mmHg 78%
    09:00 +25°C° 0 mm 2 m/S 747 mmHg 72%
    10:00 +27°C° 0 mm 2 m/S 747 mmHg 66%
    11:00 +28°C° 0 mm 3 m/S 747 mmHg 59%
    12:00 +28°C° 0.1 mm 3 m/S 746 mmHg 59%
    13:00 +29°C° 0.1 mm 3 m/S 746 mmHg 58%
    14:00 +29°C° 0.1 mm 3 m/S 745 mmHg 57%
    15:00 +28°C° 0.2 mm 3 m/S 745 mmHg 62%
    16:00 +28°C° 0.2 mm 3 m/S 745 mmHg 67%
    17:00 +27°C° 0.2 mm 3 m/S 745 mmHg 71%
    18:00 +25°C° 0.1 mm 3 m/S 745 mmHg 77%
    19:00 +23°C° 0.1 mm 4 m/S 745 mmHg 82%
    20:00 +21°C° 0.1 mm 4 m/S 746 mmHg 87%
    21:00 +20°C° 0 mm 4 m/S 746 mmHg 84%
    22:00 +18°C° 0 mm 4 m/S 746 mmHg 81%
    23:00 +17°C° 0 mm 4 m/S 747 mmHg 78%
    Mehr zeigen